Total_Precipitation_Accumulation
0.45 0.51 0.52 0.52 0.54 0.52 0.47 0.44 0.44 0.42 0.41 0.44 0.46 0.47 0.46 0.45 0.44 0.43 0.41 0.38 0.36 0.33 0.32 0.33 0.34 0.34 0.34 0.34 0.37 0.41 0.46 0.51 0.56 0.49 0.43 0.43 0.44 0.42 0.41 0.36 0.32 0.31 0.30
0.34 0.42 0.40 0.39 0.44 0.48 0.45 0.40 0.39 0.37 0.33 0.31 0.32 0.33 0.32 0.31 0.32 0.33 0.34 0.33 0.32 0.32 0.31 0.31 0.31 0.31 0.33 0.34 0.36 0.39 0.40 0.42 0.44 0.43 0.37 0.35 0.34 0.31 0.27 0.23 0.19 0.16 0.15
0.28 0.30 0.29 0.29 0.31 0.35 0.38 0.38 0.36 0.36 0.32 0.26 0.21 0.20 0.20 0.21 0.22 0.23 0.24 0.25 0.27 0.28 0.30 0.31 0.32 0.33 0.34 0.34 0.35 0.35 0.35 0.34 0.34 0.33 0.29 0.25 0.22 0.20 0.17 0.14 0.11 0.09 0.08
0.17 0.20 0.22 0.23 0.24 0.27 0.28 0.29 0.29 0.30 0.30 0.27 0.21 0.18 0.18 0.18 0.19 0.20 0.20 0.22 0.24 0.26 0.27 0.30 0.32 0.33 0.34 0.35 0.35 0.35 0.33 0.29 0.27 0.26 0.26 0.24 0.20 0.15 0.12 0.09 0.07 0.05 0.05
0.17 0.17 0.18 0.19 0.20 0.21 0.21 0.20 0.18 0.18 0.19 0.21 0.21 0.21 0.20 0.19 0.19 0.21 0.23 0.27 0.29 0.31 0.33 0.34 0.35 0.37 0.36 0.33 0.29 0.25 0.22 0.21 0.24 0.29 0.29 0.22 0.13 0.09 0.07 0.05 0.05 0.04 0.03
0.17 0.16 0.16 0.17 0.17 0.16 0.16 0.15 0.14 0.14 0.15 0.19 0.23 0.26 0.29 0.31 0.39 0.35 0.30 0.31 0.34 0.35 0.36 0.35 0.33 0.32 0.29 0.27 0.24 0.22 0.22 0.26 0.32 0.34 0.25 0.13 0.07 0.05 0.05 0.06 0.08 0.10 0.07
0.17 0.15 0.15 0.16 0.18 0.17 0.17 0.20 0.25 0.28 0.29 0.33 0.36 0.39 0.41 0.48 0.55 0.48 0.44 0.37 0.36 0.35 0.33 0.30 0.26 0.23 0.21 0.16 0.15 0.16 0.19 0.23 0.23 0.17 0.08 0.04 0.04 0.05 0.10 0.15 0.13 0.14 0.09
0.29 0.25 0.21 0.22 0.27 0.32 0.36 0.41 0.48 0.56 0.60 0.63 0.64 0.62 0.58 0.58 0.55 0.47 0.44 0.37 0.34 0.30 0.24 0.19 0.15 0.12 0.10 0.10 0.11 0.15 0.13 0.10 0.06 0.04 0.03 0.03 0.04 0.05 0.09 0.16 0.15 0.11 0.04
0.37 0.39 0.39 0.41 0.48 0.53 0.61 0.67 0.69 0.76 0.76 0.73 0.71 0.67 0.60 0.52 0.44 0.34 0.27 0.22 0.20 0.18 0.13 0.10 0.08 0.07 0.08 0.13 0.17 0.18 0.08 0.03 0.02 0.03 0.05 0.04 0.04 0.04 0.04 0.11 0.15 0.16 0.09
0.49 0.54 0.56 0.57 0.60 0.62 0.63 0.63 0.62 0.62 0.60 0.54 0.49 0.44 0.39 0.34 0.29 0.22 0.17 0.14 0.11 0.09 0.07 0.06 0.06 0.07 0.10 0.16 0.16 0.11 0.04 0.02 0.03 0.03 0.02 0.01 0.01 0.01 0.02 0.08 0.20 0.36 0.27
0.59 0.63 0.64 0.61 0.58 0.54 0.47 0.41 0.37 0.34 0.30 0.27 0.25 0.22 0.19 0.17 0.15 0.13 0.11 0.09 0.07 0.06 0.06 0.05 0.05 0.11 0.17 0.18 0.12 0.06 0.05 0.08 0.06 0.03 0.02 0.02 0.01 0.01 0.01 0.02 0.09 0.36 0.52
0.46 0.43 0.39 0.34 0.30 0.27 0.23 0.21 0.19 0.17 0.16 0.14 0.12 0.11 0.09 0.08 0.09 0.09 0.10 0.11 0.12 0.10 0.08 0.06 0.08 0.15 0.16 0.12 0.09 0.08 0.10 0.09 0.04 0.03 0.03 0.03 0.02 0.02 0.01 0.01 0.02 0.07 0.21
0.16 0.14 0.13 0.12 0.11 0.11 0.11 0.10 0.10 0.10 0.09 0.09 0.09 0.08 0.08 0.08 0.09 0.11 0.12 0.15 0.17 0.16 0.13 0.12 0.14 0.14 0.12 0.10 0.09 0.09 0.08 0.07 0.06 0.06 0.05 0.03 0.03 0.03 0.03 0.03 0.02 0.02 0.02
0.06 0.06 0.07 0.07 0.07 0.07 0.07 0.07 0.07 0.07 0.08 0.08 0.09 0.09 0.09 0.10 0.10 0.12 0.14 0.16 0.19 0.19 0.17 0.16 0.15 0.13 0.12 0.11 0.10 0.09 0.07 0.06 0.08 0.10 0.07 0.04 0.04 0.04 0.04 0.04 0.06 0.06 0.07
0.06 0.07 0.08 0.09 0.10 0.10 0.11 0.11 0.12 0.12 0.12 0.13 0.12 0.12 0.13 0.12 0.13 0.18 0.20 0.20 0.22 0.23 0.23 0.20 0.18 0.16 0.14 0.11 0.09 0.08 0.07 0.07 0.08 0.08 0.09 0.09 0.07 0.05 0.04 0.04 0.08 0.11 0.14
0.09 0.09 0.10 0.11 0.12 0.12 0.13 0.13 0.15 0.15 0.16 0.17 0.16 0.15 0.14 0.15 0.17 0.21 0.23 0.24 0.26 0.30 0.32 0.23 0.17 0.14 0.13 0.11 0.10 0.10 0.09 0.09 0.09 0.11 0.12 0.13 0.14 0.12 0.09 0.05 0.07 0.14 0.16
0.11 0.13 0.14 0.15 0.15 0.16 0.16 0.17 0.17 0.19 0.21 0.20 0.19 0.18 0.18 0.19 0.21 0.23 0.26 0.28 0.29 0.33 0.31 0.22 0.15 0.12 0.11 0.12 0.13 0.13 0.13 0.11 0.13 0.16 0.17 0.18 0.19 0.15 0.12 0.10 0.09 0.12 0.11
0.12 0.14 0.15 0.15 0.16 0.18 0.18 0.18 0.18 0.19 0.19 0.18 0.19 0.24 0.24 0.25 0.26 0.28 0.32 0.36 0.34 0.30 0.23 0.17 0.14 0.12 0.13 0.16 0.17 0.17 0.17 0.17 0.17 0.17 0.18 0.19 0.23 0.22 0.17 0.14 0.14 0.17 0.19
0.12 0.13 0.15 0.15 0.16 0.18 0.19 0.20 0.20 0.19 0.19 0.19 0.20 0.24 0.30 0.33 0.35 0.34 0.35 0.34 0.27 0.20 0.15 0.13 0.14 0.16 0.19 0.21 0.21 0.22 0.23 0.23 0.22 0.23 0.22 0.22 0.26 0.30 0.22 0.16 0.17 0.16 0.19
0.11 0.16 0.19 0.18 0.18 0.18 0.18 0.19 0.19 0.19 0.18 0.18 0.19 0.21 0.29 0.38 0.34 0.29 0.28 0.26 0.22 0.18 0.17 0.18 0.20 0.22 0.27 0.29 0.29 0.28 0.27 0.25 0.24 0.25 0.24 0.25 0.26 0.32 0.30 0.24 0.22 0.23 0.21
0.12 0.16 0.21 0.19 0.16 0.17 0.19 0.20 0.20 0.20 0.19 0.18 0.16 0.20 0.32 0.34 0.30 0.25 0.24 0.25 0.24 0.22 0.21 0.23 0.25 0.28 0.32 0.34 0.33 0.30 0.28 0.25 0.26 0.30 0.30 0.29 0.29 0.30 0.26 0.27 0.27 0.29 0.30
0.12 0.14 0.16 0.16 0.17 0.19 0.21 0.22 0.22 0.21 0.19 0.18 0.17 0.20 0.30 0.29 0.22 0.20 0.20 0.21 0.22 0.24 0.24 0.28 0.30 0.29 0.35 0.41 0.44 0.42 0.34 0.26 0.25 0.31 0.33 0.30 0.31 0.33 0.34 0.36 0.35 0.34 0.31
0.13 0.14 0.15 0.16 0.17 0.21 0.23 0.20 0.19 0.20 0.19 0.19 0.18 0.20 0.23 0.23 0.19 0.17 0.17 0.18 0.21 0.23 0.25 0.28 0.31 0.29 0.30 0.37 0.46 0.58 0.58 0.43 0.34 0.41 0.56 0.57 0.51 0.49 0.49 0.44 0.37 0.34 0.27
0.12 0.14 0.15 0.16 0.18 0.19 0.20 0.19 0.19 0.19 0.20 0.20 0.20 0.20 0.20 0.21 0.21 0.19 0.19 0.21 0.22 0.23 0.24 0.28 0.31 0.31 0.31 0.38 0.43 0.48 0.54 0.60 0.78 0.92 0.97 0.98 0.76 0.56 0.48 0.42 0.36 0.33 0.30
0.12 0.14 0.16 0.17 0.19 0.20 0.21 0.21 0.20 0.20 0.20 0.21 0.21 0.21 0.21 0.21 0.21 0.21 0.21 0.22 0.23 0.23 0.23 0.26 0.30 0.33 0.33 0.36 0.40 0.43 0.45 0.61 0.86 0.99 0.91 0.80 0.64 0.50 0.47 0.44 0.38 0.36 0.33
0.13 0.15 0.17 0.19 0.21 0.21 0.22 0.21 0.20 0.20 0.21 0.20 0.20 0.21 0.21 0.21 0.20 0.20 0.21 0.21 0.22 0.22 0.22 0.23 0.26 0.30 0.33 0.34 0.31 0.35 0.48 0.57 0.57 0.55 0.67 0.74 0.64 0.50 0.47 0.50 0.45 0.41 0.37